Regional Weather Roundup
Issued by NWS

Home | Current Version | Previous Version | Graphics & Text | Print | Product List | Glossary Off
Versions: 1 2 3 4 5 6 7 8 9 10 11 12 13 14 15 16 17 18 19 20 21 22 23 24 25 26 27 28 29 30 31 32 33 34 35 36 37 38 39 40 41 42 43 44 45 46 47 48 49 50

000
ASUS43 KDTX 211101
RWRMI
MICHIGAN HOURLY REGIONAL WEATHER ROUNDUP
NATIONAL WEATHER SERVICE DETROIT/PONTIAC MI
700 AM EDT SUN SEP 21 2014

NOTE: "FAIR" INDICATES FEW OR NO CLOUDS BELOW 12,000 FEET WITH NO
SIGNIFICANT WEATHER AND/OR OBSTRUCTION TO VISIBILITY.

MIZ047>049-052>055-059>063-066>070-074>076-081>083-211200-
SOUTHEAST LOWER MICHIGAN

CITY           SKY/WX    TMP DP  RH WIND       PRES   REMARKS
ADRIAN         MOCLDY    66  62  87 W10G18    29.66R
ALMA           MOCLDY    60  58  94 W8        29.61R
ANN ARBOR      MOCLDY    67  61  81 W14G23    29.63R
BAD AXE        RAIN      60  60 100 W5        29.56F
CARO           CLOUDY    61  60  97 SW8       29.57F
DETROIT CITY   LGT RAIN  67  61  81 W12G21    29.61
DETROIT        MOCLDY    68  65  90 SW14G30   29.62R
FLINT          MOCLDY    61  58  90 SW6       29.60F
GROSSE ILE     CLOUDY    70  64  83 SW8       29.61R
HILLSDALE      PTCLDY    64  62  93 W12       29.68R
HOWELL         PTCLDY    60  58  96 W12       29.63R

CITY           SKY/WX    TMP DP  RH WIND       PRES   REMARKS
JACKSON        CLOUDY    63  58  83 W15G24    29.66R
LAMBERTVILLE   CLEAR     68  61  77 SW14G21   29.65R
LANSING        PTCLDY    60  57  89 W13       29.64R
LAPEER         PTSUNNY   61  59  93 W5        29.60R
MASON          CLOUDY    60  58  91 W10       29.65R
MONROE         MOCLDY    68  64  88 W12G17    29.61R
MT. CLEMENS    LGT RAIN  64  64 100 W13       29.57S
PONTIAC        MOCLDY    62  58  86 W12       29.60S
PORT HOPE        N/A     62  60  93 CALM      29.54F
PORT HURON     LGT RAIN  63  63 100 CALM      29.57F
TRI CITIES     CLOUDY    63  60  90 SW8       29.59S
TROY           MOCLDY    64  60  87 SW5       29.62S
SAGINAW HB     CLOUDY    63  63 100 SW8       29.58S
$$
MIZ043>046-050>051-056>058-064>065-071>073-077>080-211200-
SOUTHWEST LOWER MICHIGAN

CITY           SKY/WX    TMP DP  RH WIND       PRES   REMARKS
BATTLE CREEK   MOCLDY    61  57  87 W20       29.69R
BENTON HARBOR  MOCLDY    60  54  80 W22G31    29.74R
BIG RAPIDS     CLOUDY    57  56  99 W13G24    29.60S
COLDWATER      PTCLDY    64  59  85 W16G25    29.69R
FREMONT        CLOUDY    57  56  95 W10       29.63S
HOLLAND        MOCLDY    61  56  83 W16G25    29.69S
GRAND RAPIDS   CLOUDY    61  59  93 W15G23    29.66R
IONIA          CLOUDY    60  57  91 W15G24    29.64R
KALAMAZOO      CLOUDY    61  57  87 W14       29.71R
LUDINGTON      CLOUDY    57  56  95 W5        29.62S
MARSHALL       MOCLDY    60  57  89 W12G20    29.68R
MOUNT PLEASANT CLEAR     59  58  96 SW7       29.58S
MUSKEGON       PTCLDY    60  54  80 W18G24    29.66S
SOUTH HAVEN    CLOUDY    63  57  82 W14G20    29.72R
$$
MIZ016>042-211200-
NORTHERN LOWER MICHIGAN

CITY           SKY/WX    TMP DP  RH WIND       PRES   REMARKS
ALPENA         LGT RAIN  55  54  96 N12       29.57F
BEAVER ISLAND  RAIN      55  55  97 N5        29.63S
BELLAIRE       CLOUDY    56  55  94 N7        29.59F
CADILLAC       CLOUDY    57  56  97 NW6       29.59S
CHARLEVOIX     RAIN      57  57 100 N15       29.62F
FRANKFORT      CLOUDY    58  54  87 N6        29.60R
GAYLORD        HVY RAIN  54  53  97 N3        29.60R FOG
GRAYLING       RAIN      56  56  99 NW10      29.59R
HARBOR SPRINGS HVY RAIN  56  54  94 N12       29.61R
HOUGHTON LAKE  CLOUDY    58  56  93 NW8       29.58R
MANISTEE       CLOUDY    57  54  88 W7        29.61R
OSCODA         CLOUDY    61  60  98 NW3       29.53F
PELLSTON       RAIN      55  54  96 N5        29.63R
ROGERS CITY    HVY RAIN  54  54 100 N6        29.60F
TRAVERSE CITY  MOCLDY    57  54  89 N3        29.58S
$$
MIZ007>008-015-211200-
EASTERN UPPER MICHIGAN

CITY           SKY/WX    TMP DP  RH WIND       PRES   REMARKS
KINROSS        CLOUDY    54  52  94 NE12G18   29.64R
MACKINAC ISLAN DRIZZLE   54  54 100 NE8       29.62R
NEWBERRY       CLOUDY    51  49  93 N10G17    29.66R
S. S. MARIE    CLOUDY    52  47  83 VRB6      29.64R
$$
MIZ004>006-011>014-085-211200-
CENTRAL UPPER MICHIGAN

CITY           SKY/WX    TMP DP  RH WIND       PRES   REMARKS
MANISTIQUE     CLOUDY    52  51  97 N12       29.64R
ESCANABA       CLOUDY    52  48  87 N10       29.67R
MENOMINEE      CLOUDY    54  50  87 N8        29.67R
SAWYER-GWINN   DRIZZLE   48  48 100 N17G23    29.73R
$$
MIZ001>003-009>011-084-211200-
WESTERN UPPER MICHIGAN

CITY           SKY/WX    TMP DP  RH WIND       PRES   REMARKS
IRON MOUNTAIN  LGT RAIN  53  50  89 N13       29.72R
HOUGHTON       LGT RAIN  46  43  89 N13G22    29.83R FOG
COPPER HARBOR    N/A     47  43  86 NE24      29.82R
IRONWOOD       CLOUDY    48  48 100 N7        29.85R
$$

ABBREVIATIONS USED IN REMARKS
   TC - TEMPERATURE IN CELSIUS
  WCI - WIND CHILL INDEX
   HX - HEAT INDEX
  VSB - VISIBILITY



USA.gov is the U.S. government's official web portal to all federal, state and local government web resources and services.